Leesburg, VA

8:21 AM EST on December 13, 2019 (GMT -0500)
Leesburg Executive

Weather History for KJYO - November, 2019

Change the Weather History Date:

Saturday, November 16, 2019

  Actual Average (KIAD) Record (KIAD)
Temperature  
Mean Temperature 38 °F -  
Max Temperature 44 °F 56 °F 74 °F (2001)
Min Temperature 33 °F 31 °F 14 °F (1967)
Degree Days  
Heating Degree Days 26    
Moisture  
Dew Point 23 °F    
Average Humidity 57    
Maximum Humidity 87    
Minimum Humidity 33    
Precipitation  
Precipitation 0.00 in - - ()
Sea Level Pressure  
Sea Level Pressure 30.35 in    
Wind  
Wind Speed 8 mph (NNE)    
Max Wind Speed 17 mph    
Max Gust Speed 25 mph    
Visibility 10 miles    
Events      
Averages and records for this station are not official NWS values.
T = Trace of Precipitation, MM = Missing Value Source: NWS Daily Summary

Daily Weather History Graph

Daily Weather History Graph

Search for Another Location

Airport or City:

Astronomy

Nov. 16, 2019 Rise Set
Actual Time 6:54 AM EST 4:55 PM EST
Civil Twilight 6:25 AM EST 5:24 PM EST
Nautical Twilight 5:53 AM EST 5:56 PM EST
Astronomical Twilight 5:21 AM EST 6:28 PM EST
Moon 8:27 PM EST (11/16) 10:45 AM EST (11/16)
Length of Visible Light 10h 58m
Length of Day
10h 01m
Waning Gibbous, 82% of the Moon is Illuminated
Nov 16
Waning Gibbous
Nov 19
Last Quarter
Nov 26
New
Dec 4
First Quarter
Dec 12
Full

Hourly Weather History & Observations

Time (EST) Temp. Windchill Dew Point Humidity Pressure Visibility Wind Dir Wind Speed Gust Speed Precip Events Conditions
12:15 AM 41.0 °F 35.2 °F 30.2 °F 65% 30.26 in 10.0 mi North 9.2 mph - N/A   Clear
12:35 AM 41.0 °F 35.8 °F 30.2 °F 65% 30.26 in 10.0 mi North 8.1 mph - N/A   Clear
12:55 AM 39.2 °F 32.5 °F 30.2 °F 70% 30.26 in 10.0 mi North 10.4 mph 18.4 mph N/A   Clear
1:15 AM 39.2 °F 32.0 °F 30.2 °F 70% 30.27 in 10.0 mi North 11.5 mph 18.4 mph N/A   Clear
1:55 AM 37.4 °F 30.8 °F 30.2 °F 75% 30.28 in 10.0 mi North 9.2 mph 16.1 mph N/A   Clear
2:15 AM 35.6 °F 29.2 °F 30.2 °F 81% 30.28 in 10.0 mi North 8.1 mph - N/A   Clear
2:35 AM 35.6 °F 30.7 °F 30.2 °F 81% 30.28 in 10.0 mi North 5.8 mph - N/A   Clear
2:55 AM 35.6 °F 29.9 °F 30.2 °F 81% 30.29 in 10.0 mi North 6.9 mph - N/A   Clear
3:15 AM 35.6 °F 30.7 °F 30.2 °F 81% 30.29 in 10.0 mi North 5.8 mph - N/A   Scattered Clouds
3:35 AM 33.8 °F 28.6 °F 30.2 °F 87% 30.28 in 10.0 mi North 5.8 mph - N/A   Scattered Clouds
3:55 AM 33.8 °F 29.6 °F 30.2 °F 87% 30.29 in 10.0 mi North 4.6 mph - N/A   Clear
4:15 AM 33.8 °F 28.6 °F 30.2 °F 87% 30.30 in 10.0 mi North 5.8 mph - N/A   Clear
4:35 AM 33.8 °F 29.6 °F 30.2 °F 87% 30.30 in 10.0 mi North 4.6 mph - N/A   Clear
4:55 AM 33.8 °F 27.7 °F 30.2 °F 87% 30.31 in 10.0 mi NNE 6.9 mph - N/A   Clear
5:15 AM 35.6 °F 29.9 °F 30.2 °F 81% 30.32 in 10.0 mi NNE 6.9 mph - N/A   Clear
5:35 AM 33.8 °F 27.7 °F 30.2 °F 87% 30.33 in 10.0 mi NNE 6.9 mph - N/A   Clear
5:55 AM 33.8 °F 27.0 °F 30.2 °F 87% 30.35 in 10.0 mi NNE 8.1 mph - N/A   Clear
6:15 AM 33.8 °F 27.7 °F 30.2 °F 87% 30.35 in 10.0 mi NNE 6.9 mph - N/A   Clear
6:35 AM 33.8 °F 28.6 °F 28.4 °F 81% 30.37 in 10.0 mi NNE 5.8 mph - N/A   Clear
6:55 AM 33.8 °F 29.6 °F 28.4 °F 81% 30.38 in 10.0 mi NNE 4.6 mph - N/A   Clear
7:35 AM 33.8 °F 27.7 °F 28.4 °F 81% 30.39 in 10.0 mi NNE 6.9 mph - N/A   Clear
7:55 AM 33.8 °F 27.7 °F 28.4 °F 81% 30.40 in 10.0 mi NNE 6.9 mph - N/A   Clear
8:15 AM 35.6 °F 29.2 °F 28.4 °F 75% 30.40 in 10.0 mi NNE 8.1 mph - N/A   Clear
8:35 AM 35.6 °F 29.2 °F 28.4 °F 75% 30.40 in 10.0 mi NNE 8.1 mph - N/A   Clear
8:55 AM 37.4 °F 29.8 °F 28.4 °F 70% 30.40 in 10.0 mi NNE 11.5 mph 17.3 mph N/A   Clear
9:15 AM 37.4 °F 30.3 °F 28.4 °F 70% 30.40 in 10.0 mi NNE 10.4 mph 17.3 mph N/A   Clear
9:35 AM 37.4 °F 29.3 °F 28.4 °F 70% 30.40 in 10.0 mi NNE 12.7 mph 25.3 mph N/A   Clear
9:55 AM 39.2 °F 31.6 °F 28.4 °F 65% 30.41 in 10.0 mi NNE 12.7 mph 20.7 mph N/A   Clear
10:15 AM 41.0 °F 35.2 °F 28.4 °F 61% 30.41 in 10.0 mi NE 9.2 mph 20.7 mph N/A   Clear
10:35 AM 41.0 °F 33.5 °F 28.4 °F 61% 30.40 in 10.0 mi NE 13.8 mph 19.6 mph N/A   Clear
10:55 AM 41.0 °F 34.7 °F 26.6 °F 57% 30.40 in 10.0 mi NNE 10.4 mph - N/A   Clear
11:15 AM 42.8 °F 36.6 °F 26.6 °F 53% 30.40 in 10.0 mi East 11.5 mph 18.4 mph N/A   Clear
11:55 AM 42.8 °F 36.2 °F 24.8 °F 49% 30.38 in 10.0 mi NE 12.7 mph 18.4 mph N/A   Clear
12:15 PM 42.8 °F 38.0 °F 23.0 °F 46% 30.37 in 10.0 mi NNE 8.1 mph 16.1 mph N/A   Clear
12:35 PM 42.8 °F 39.3 °F 23.0 °F 46% 30.36 in 10.0 mi NE 5.8 mph 19.6 mph N/A   Clear
12:55 PM 42.8 °F 34.8 °F 23.0 °F 46% 30.35 in 10.0 mi NE 17.3 mph 20.7 mph N/A   Clear
1:15 PM 44.6 °F 39.7 °F 23.0 °F 43% 30.35 in 10.0 mi NE 9.2 mph 18.4 mph N/A   Clear
1:35 PM 44.6 °F 39.7 °F 21.2 °F 39% 30.35 in 10.0 mi East 9.2 mph 18.4 mph N/A   Clear
1:55 PM 44.6 °F 38.8 °F 21.2 °F 39% 30.35 in 10.0 mi NE 11.5 mph 17.3 mph N/A   Clear
2:15 PM 44.6 °F 39.7 °F 21.2 °F 39% 30.34 in 10.0 mi ENE 9.2 mph 16.1 mph N/A   Clear
2:35 PM 44.6 °F 39.2 °F 21.2 °F 39% 30.35 in 10.0 mi NNE 10.4 mph 20.7 mph N/A   Clear
2:55 PM 44.6 °F 39.7 °F 21.2 °F 39% 30.35 in 10.0 mi East 9.2 mph 17.3 mph N/A   Clear
3:15 PM 44.6 °F 40.2 °F 21.2 °F 39% 30.35 in 10.0 mi NE 8.1 mph 16.1 mph N/A   Clear
3:35 PM 44.6 °F 38.4 °F 19.4 °F 37% 30.35 in 10.0 mi NE 12.7 mph 17.3 mph N/A   Clear
3:55 PM 42.8 °F 36.6 °F 19.4 °F 39% 30.35 in 10.0 mi NE 11.5 mph - N/A   Clear
4:15 PM 42.8 °F 36.2 °F 17.6 °F 36% 30.35 in 10.0 mi ENE 12.7 mph 16.1 mph N/A   Clear
4:35 PM 42.8 °F 38.0 °F 15.8 °F 34% 30.36 in 10.0 mi NE 8.1 mph - N/A   Clear
5:15 PM 41.0 °F 37.1 °F 14.0 °F 33% 30.37 in 10.0 mi NE 5.8 mph - N/A   Clear
5:35 PM 39.2 °F 37.0 °F 14.0 °F 36% 30.38 in 10.0 mi ESE 3.5 mph - N/A   Clear
5:55 PM 37.4 °F 34.9 °F 14.0 °F 38% 30.38 in 10.0 mi East 3.5 mph - N/A   Clear
6:15 PM 37.4 °F 34.9 °F 14.0 °F 38% 30.39 in 10.0 mi East 3.5 mph - N/A   Clear
6:55 PM 35.6 °F 31.7 °F 14.0 °F 41% 30.39 in 10.0 mi NE 4.6 mph - N/A   Clear
7:15 PM 35.6 °F 30.7 °F 14.0 °F 41% 30.38 in 10.0 mi NE 5.8 mph - N/A   Clear
7:35 PM 35.6 °F 30.7 °F 12.2 °F 38% 30.38 in 10.0 mi NE 5.8 mph - N/A   Clear
8:15 PM 35.6 °F 30.7 °F 12.2 °F 38% 30.38 in 10.0 mi NE 5.8 mph - N/A   Clear
8:35 PM 33.8 °F 27.0 °F 12.2 °F 41% 30.39 in 10.0 mi NE 8.1 mph - N/A   Clear
8:55 PM 33.8 °F 27.7 °F 10.4 °F 38% 30.38 in 10.0 mi NE 6.9 mph - N/A   Scattered Clouds
9:15 PM 35.6 °F 30.7 °F 12.2 °F 38% 30.38 in 10.0 mi NE 5.8 mph - N/A   Mostly Cloudy
9:35 PM 35.6 °F 31.7 °F 12.2 °F 38% 30.39 in 10.0 mi NE 4.6 mph - N/A   Overcast
9:55 PM 33.8 °F 29.6 °F 12.2 °F 41% 30.39 in 10.0 mi NNE 4.6 mph - N/A   Overcast
10:15 PM 33.8 °F 29.6 °F 12.2 °F 41% 30.38 in 10.0 mi NNE 4.6 mph - N/A   Overcast
10:35 PM 33.8 °F 27.7 °F 12.2 °F 41% 30.38 in 10.0 mi NNE 6.9 mph - N/A   Overcast
10:55 PM 33.8 °F 29.6 °F 12.2 °F 41% 30.38 in 10.0 mi NNE 4.6 mph - N/A   Overcast
11:15 PM 33.8 °F 28.6 °F 12.2 °F 41% 30.38 in 10.0 mi NNE 5.8 mph - N/A   Overcast
11:35 PM 33.8 °F 29.6 °F 12.2 °F 41% 30.37 in 10.0 mi NNE 4.6 mph - N/A   Overcast
11:55 PM 33.8 °F 30.8 °F 12.2 °F 41% 30.38 in 10.0 mi NNE 3.5 mph - N/A   Overcast